Location: Asheville, NC
(35.6000°N, 82.5500°W)
Time: 18:43:44
(UTC-04:00)

AO-85 - Pass Details

Date: 12 February 2018
Orbit: 499 x 786 km, 64.8° (Epoch: 17 May)

Event Time Altitude Azimuth Distance (km) Brightness Sun altitude
Exits shadow 05:33:20 -1° 186° (S) 2,648 ? -22.2°
Rises 05:33:29 0° 185° (S) 2,590 ? -22.2°
Reaches altitude 10° 05:35:45 10° 174° (S) 1,731 ? -21.7°
Maximum altitude 05:39:09 30° 112° (ESE) 965 ? -21.1°
Drops below altitude 10° 05:42:46 10° 50° (NE) 1,846 ? -20.3°
Sets 05:45:15 0° 40° (NE) 2,796 ? -19.8°
